When you browse on this site, cookies collect data to enhance your experience and personalize the content and advertising you see.
Visit our Privacy Policy to learn more. By continuing to use the site, you agree to this use of cookies and data.
  • In Netherlands
  • List of Countries
  • For 7 days
  • Water Temperature
  • Satellite Maps
  • Weather Map
  • Weather Widgets
  • user-avatar
    Login

    Hourly Weather Kandahar

    Today, 25 March, Monday

    Time Temperature Precipitation Wind Pressure Humidity
    00:00 +17°C° 0 mm 0 mps 675 mmHg 44%
    01:00 +17°C° 0 mm 0 mps 675 mmHg 45%
    02:00 +16°C° 0 mm 0 mps 675 mmHg 48%
    03:00 +16°C° 0 mm 0 mps 675 mmHg 51%
    04:00 +15°C° 0 mm 0 mps 675 mmHg 54%
    05:00 +18°C° 0 mm 1 mps 676 mmHg 53%
    06:00 +18°C° 0 mm 1 mps 676 mmHg 52%
    07:00 +19°C° 0 mm 1 mps 677 mmHg 51%
    08:00 +20°C° 0 mm 1 mps 677 mmHg 48%
    09:00 +21°C° 0 mm 1 mps 678 mmHg 45%
    10:00 +22°C° 0 mm 1 mps 678 mmHg 42%
    11:00 +22°C° 0 mm 1 mps 678 mmHg 39%
    12:00 +23°C° 0 mm 1 mps 678 mmHg 36%
    13:00 +24°C° 0 mm 1 mps 677 mmHg 33%
    14:00 +24°C° 0 mm 1 mps 677 mmHg 31%
    15:00 +25°C° 0 mm 1 mps 677 mmHg 30%
    16:00 +25°C° 0 mm 1 mps 676 mmHg 28%
    17:00 +25°C° 0 mm 1 mps 677 mmHg 30%
    18:00 +24°C° 0 mm 2 mps 677 mmHg 32%
    19:00 +24°C° 0 mm 2 mps 677 mmHg 34%
    20:00 +23°C° 0 mm 2 mps 677 mmHg 35%
    21:00 +23°C° 0 mm 2 mps 677 mmHg 36%
    22:00 +21°C° 0 mm 2 mps 678 mmHg 37%
    23:00 +21°C° 0 mm 2 mps 677 mmHg 38%

    Tomorrow, 26 March, Tuesday

    Time Temperature Precipitation Wind Pressure Humidity
    00:00 +20°C° 0 mm 2 mps 677 mmHg 40%
    01:00 +21°C° 0 mm 1 mps 677 mmHg 41%
    02:00 +19°C° 0 mm 2 mps 677 mmHg 41%
    03:00 +19°C° 0 mm 2 mps 677 mmHg 41%
    04:00 +19°C° 0 mm 2 mps 676 mmHg 41%
    05:00 +19°C° 0 mm 2 mps 677 mmHg 40%
    06:00 +19°C° 0 mm 2 mps 677 mmHg 39%
    07:00 +20°C° 0 mm 2 mps 677 mmHg 38%
    08:00 +21°C° 0 mm 3 mps 678 mmHg 34%
    09:00 +24°C° 0 mm 3 mps 678 mmHg 29%
    10:00 +26°C° 0 mm 3 mps 679 mmHg 25%
    11:00 +27°C° 0 mm 3 mps 678 mmHg 25%
    12:00 +28°C° 0 mm 3 mps 678 mmHg 24%
    13:00 +29°C° 0 mm 2 mps 678 mmHg 24%
    14:00 +29°C° 0 mm 3 mps 678 mmHg 23%
    15:00 +30°C° 0 mm 3 mps 677 mmHg 23%
    16:00 +30°C° 0 mm 4 mps 677 mmHg 23%
    17:00 +29°C° 0 mm 3 mps 677 mmHg 27%
    18:00 +28°C° 0 mm 2 mps 677 mmHg 30%
    19:00 +27°C° 0 mm 1 mps 677 mmHg 34%
    20:00 +27°C° 0 mm 1 mps 677 mmHg 35%
    21:00 +26°C° 0 mm 2 mps 677 mmHg 36%
    22:00 +26°C° 0 mm 2 mps 678 mmHg 37%
    23:00 +26°C° 0 mm 2 mps 677 mmHg 39%

    Day after tomorrow, 27 March, Wednesday

    Time Temperature Precipitation Wind Pressure Humidity
    00:00 +25°C° 0 mm 1 mps 677 mmHg 40%
    01:00 +25°C° 0 mm 1 mps 677 mmHg 41%
    02:00 +24°C° 0 mm 1 mps 677 mmHg 43%
    03:00 +24°C° 0 mm 1 mps 677 mmHg 44%
    04:00 +23°C° 0 mm 1 mps 676 mmHg 45%
    05:00 +24°C° 0 mm 1 mps 677 mmHg 44%
    06:00 +24°C° 0 mm 1 mps 677 mmHg 43%
    07:00 +24°C° 0 mm 1 mps 677 mmHg 42%
    08:00 +25°C° 0 mm 2 mps 677 mmHg 37%
    09:00 +26°C° 0 mm 3 mps 678 mmHg 32%
    10:00 +28°C° 0 mm 3 mps 678 mmHg 27%
    11:00 +29°C° 0 mm 4 mps 678 mmHg 25%
    12:00 +30°C° 0 mm 5 mps 678 mmHg 22%
    13:00 +32°C° 0 mm 5 mps 677 mmHg 20%
    14:00 +29°C° 0.3 mm 7 mps 677 mmHg 28%
    15:00 +26°C° 0.3 mm 8 mps 677 mmHg 36%
    16:00 +23°C° 0.3 mm 10 mps 677 mmHg 44%
    17:00 +23°C° 0.4 mm 8 mps 677 mmHg 45%
    18:00 +23°C° 0.4 mm 5 mps 678 mmHg 45%
    19:00 +22°C° 0.4 mm 3 mps 679 mmHg 46%
    20:00 +22°C° 0 mm 3 mps 679 mmHg 49%
    21:00 +21°C° 0 mm 3 mps 678 mmHg 53%
    22:00 +21°C° 0 mm 3 mps 678 mmHg 56%
    23:00 +21°C° 0 mm 3 mps 678 mmHg 57%

    28 March, Thursday

    Time Temperature Precipitation Wind Pressure Humidity
    00:00 +20°C° 0 mm 2 mps 677 mmHg 58%
    01:00 +20°C° 0 mm 2 mps 676 mmHg 59%
    02:00 +20°C° 0 mm 2 mps 676 mmHg 59%
    03:00 +20°C° 0 mm 2 mps 676 mmHg 58%
    04:00 +19°C° 0 mm 3 mps 676 mmHg 58%
    05:00 +20°C° 0 mm 3 mps 676 mmHg 56%
    06:00 +20°C° 0 mm 3 mps 676 mmHg 54%
    07:00 +20°C° 0 mm 3 mps 677 mmHg 51%
    08:00 +22°C° 0 mm 3 mps 677 mmHg 45%
    09:00 +25°C° 0 mm 2 mps 678 mmHg 39%
    10:00 +27°C° 0 mm 2 mps 678 mmHg 33%
    11:00 +27°C° 0 mm 2 mps 677 mmHg 31%
    12:00 +28°C° 0 mm 3 mps 677 mmHg 28%
    13:00 +29°C° 0 mm 3 mps 676 mmHg 25%
    14:00 +29°C° 0 mm 3 mps 676 mmHg 23%
    15:00 +30°C° 0 mm 4 mps 675 mmHg 20%
    16:00 +30°C° 0 mm 5 mps 675 mmHg 18%
    17:00 +29°C° 0 mm 4 mps 675 mmHg 21%
    18:00 +28°C° 0 mm 3 mps 675 mmHg 23%
    19:00 +27°C° 0 mm 2 mps 675 mmHg 26%
    20:00 +26°C° 0 mm 2 mps 675 mmHg 28%
    21:00 +26°C° 0 mm 3 mps 675 mmHg 30%
    22:00 +25°C° 0 mm 4 mps 676 mmHg 32%
    23:00 +24°C° 0 mm 3 mps 675 mmHg 38%

    29 March, Friday

    Time Temperature Precipitation Wind Pressure Humidity
    00:00 +23°C° 0 mm 2 mps 675 mmHg 44%
    01:00 +22°C° 0 mm 1 mps 674 mmHg 50%
    02:00 +22°C° 0 mm 1 mps 674 mmHg 51%
    03:00 +21°C° 0 mm 1 mps 674 mmHg 53%
    04:00 +21°C° 0 mm 1 mps 673 mmHg 54%
    05:00 +20°C° 0 mm 2 mps 674 mmHg 53%
    06:00 +20°C° 0 mm 2 mps 674 mmHg 53%
    07:00 +21°C° 0 mm 2 mps 674 mmHg 52%
    08:00 +24°C° 0 mm 3 mps 674 mmHg 46%
    09:00 +25°C° 0 mm 5 mps 675 mmHg 39%
    10:00 +27°C° 0 mm 6 mps 675 mmHg 33%
    11:00 +28°C° 0 mm 8 mps 675 mmHg 29%
    12:00 +28°C° 0 mm 10 mps 674 mmHg 24%
    13:00 +29°C° 0 mm 12 mps 674 mmHg 20%
    14:00 +28°C° 0 mm 12 mps 674 mmHg 21%
    15:00 +27°C° 0 mm 12 mps 673 mmHg 21%
    16:00 +26°C° 0 mm 12 mps 673 mmHg 22%
    17:00 +24°C° 0 mm 10 mps 674 mmHg 24%
    18:00 +22°C° 0 mm 8 mps 674 mmHg 27%
    19:00 +21°C° 0 mm 6 mps 675 mmHg 29%
    20:00 +21°C° 0 mm 5 mps 675 mmHg 32%
    21:00 +20°C° 0 mm 4 mps 676 mmHg 35%
    22:00 +19°C° 0 mm 2 mps 676 mmHg 37%
    23:00 +19°C° 0 mm 2 mps 676 mmHg 39%

    30 March, Saturday

    Time Temperature Precipitation Wind Pressure Humidity
    00:00 +18°C° 0 mm 2 mps 676 mmHg 41%
    01:00 +18°C° 0 mm 2 mps 675 mmHg 42%
    02:00 +18°C° 0 mm 1 mps 675 mmHg 44%
    03:00 +18°C° 0 mm 1 mps 675 mmHg 46%
    04:00 +16°C° 0 mm 1 mps 675 mmHg 48%
    05:00 +18°C° 0 mm 1 mps 676 mmHg 47%
    06:00 +18°C° 0 mm 1 mps 676 mmHg 46%
    07:00 +16°C° 0 mm 0 mps 677 mmHg 45%
    08:00 +19°C° 0 mm 1 mps 677 mmHg 41%
    09:00 +21°C° 0 mm 1 mps 677 mmHg 36%
    10:00 +21°C° 0 mm 2 mps 678 mmHg 31%
    11:00 +23°C° 0 mm 2 mps 677 mmHg 27%
    12:00 +24°C° 0 mm 3 mps 677 mmHg 24%
    13:00 +25°C° 0 mm 3 mps 677 mmHg 20%
    14:00 +25°C° 0 mm 3 mps 677 mmHg 19%
    15:00 +25°C° 0 mm 4 mps 677 mmHg 18%
    16:00 +26°C° 0 mm 4 mps 676 mmHg 16%
    17:00 +25°C° 0 mm 3 mps 677 mmHg 19%
    18:00 +24°C° 0 mm 3 mps 677 mmHg 21%
    19:00 +22°C° 0 mm 3 mps 677 mmHg 23%
    20:00 +23°C° 0 mm 2 mps 677 mmHg 25%
    21:00 +22°C° 0 mm 1 mps 677 mmHg 28%
    22:00 +21°C° 0 mm 1 mps 677 mmHg 30%
    23:00 +20°C° 0 mm 1 mps 677 mmHg 31%
    Show more